Skip Page Navigation
NASA JPL Caltech
NASA Logo - Jet Propulsion Laboratory + View the NASA Portal
+ Center for Near-Earth Object Studies
JPL Home Earth Solar System Stars & Galaxies Technology
JPL Solar System Dynamics
BODIES ORBITS EPHEMERIDES TOOLS PHYSICAL DATA DISCOVERY FAQ SITE MAP
IMPORTANT: The SSD Announcement email list is now available. Major changes are coming in the near future, including possible hostname and/or URL changes. To be notified of such changes, subscribe to this email list.

Please visit this page for more details.


JPL Small-Body Database Browser
Search: [ help ]  
11045 (1990 HH1)
Classification: Main-belt Asteroid          SPK-ID: 2011045
Ephemeris | Orbit Diagram | Orbital Elements | Mission Design | Physical Parameters | Discovery Circumstances ]

[ show orbit diagram ]
Orbital Elements at Epoch 2458600.5 (2019-Apr-27.0) TDB
Reference: JPL 27 (heliocentric ecliptic J2000)
 Element Value Uncertainty (1-sigma)   Units 
e .1737658132806475 3.3238e-08  
a 2.656899634402886 1.1919e-08 au
q 2.195221308625813 8.8347e-08 au
i 12.78454643115241 3.8106e-06 deg
node 161.4970948148385 1.9047e-05 deg
peri 113.9916903533417 2.2625e-05 deg
M 212.897039119958 1.2191e-05 deg
tp 2459246.868322126832
(2021-Feb-01.36832213)
5.4688e-05 TDB
period 1581.83489015842
4.33
1.0644e-05
2.914e-08
d
yr
n .2275838029871412 1.5314e-09 deg/d
Q 3.118577960179958 1.399e-08 au
  Orbit Determination Parameters
   # obs. used (total)      1503  
   data-arc span      10782 days (29.52 yr)  
   first obs. used      1990-04-26  
   last obs. used      2019-11-02  
   planetary ephem.      DE431  
   SB-pert. ephem.      SB431-N16  
   condition code      0  
   norm. resid. RMS      .49288  
   source      ORB  
   producer      Otto Matic  
   solution date      2019-Dec-03 22:30:58  

Additional Information
 Earth MOID = 1.21445 au 
 Jupiter MOID = 2.16737 au 
 T_jup = 3.331 
[ show covariance matrix ]

Ephemeris | Orbit Diagram | Orbital Elements | Mission Design | Physical Parameters | Discovery Circumstances ]

Physical Parameter Table
Parameter Symbol Value Units Sigma Reference Notes
absolute magnitude H 13.7   n/a MPO279632  
diameter diameter 4.932 km 0.235 urn:nasa:pds:neowise_diameters_albedos::2.0[mainbelt] (http://adsabs.harvard.edu/abs/2011ApJ...741...68M)  
rotation period rot_per 3.973296 h n/a LCDB (Rev. 2019-January); Warner et al., 2009 sidereal period (not synodic); Result based on less than full coverage, so that the period may be wrong by 30 percent or so.
Published Reference List:
[Durech, J.; Hanus, J.; Ali-Lagoa, V. (2018) Astron. Astrophys. 617, A57.]
geometric albedo albedo 0.289   0.070 urn:nasa:pds:neowise_diameters_albedos::2.0[mainbelt] (http://adsabs.harvard.edu/abs/2011ApJ...741...68M)  

11045 (1990 HH1)          Discovered 1990-Apr-26 by Helin, E. F. at Palomar
Reference: 19990728/Numbers.arcLast Updated: 2004-04-19

Alternate Designations
 1990 HH1 = 1995 SM2 
Ephemeris | Orbit Diagram | Orbital Elements | Mission Design | Physical Parameters | Discovery Circumstances ]
ABOUT SSD CREDITS/AWARDS PRIVACY/COPYRIGHT GLOSSARY LINKS
FirstGov 2019-Dec-09 11:02 UT
(server date/time)  
NASA Home Page
Site Manager:   Ryan S. Park
Webmaster  Alan B. Chamberlin